| time (UTC) | temp C | wind direction | speed KPH | gust KPH | rain 1hr cm | rain 24hr cm | rain mn cm | humidity % | barometer mb |
| 20260503200407 | 25 | 304 | 0.0 | 1.6 | 0.00 | 0.00 | 0.00 | 51 | 1011.0 |
| 20260503195922 | 25 | 288 | 0.0 | 0.0 | 0.00 | 0.00 | 0.00 | 54 | 1011.1 |
| 20260503195407 | 24 | 320 | 0.0 | 1.6 | 0.00 | 0.00 | 0.00 | 53 | 1011.1 |
| 20260503194913 | 24 | 134 | 0.0 | 1.6 | 0.00 | 0.00 | 0.00 | 52 | 1011.3 |
| 20260503194405 | 24 | 298 | 0.0 | 1.6 | 0.00 | 0.00 | 0.00 | 53 | 1011.3 |
| 20260503193910 | 24 | 312 | 0.0 | 1.6 | 0.00 | 0.00 | 0.00 | 54 | 1011.3 |
| 20260503193754 | 23 | 321 | 0.0 | 1.6 | 0.00 | 0.00 | 0.00 | 53 | 1011.4 |
| 20260503192905 | 24 | 48 | 0.0 | 3.2 | 0.00 | 0.00 | 0.00 | 53 | 1011.4 |
| 20260503192438 | 23 | 30 | 0.0 | 3.2 | 0.00 | 0.00 | 0.00 | 56 | 1011.5 |
| 20260503191905 | 23 | 302 | 0.0 | 0.0 | 0.00 | 0.00 | 0.00 | 56 | 1011.6 |
| 20260503191432 | 23 | 73 | 0.0 | 0.0 | 0.00 | 0.00 | 0.00 | 57 | 1011.7 |
| 20260503190906 | 23 | 300 | 0.0 | 0.0 | 0.00 | 0.00 | 0.00 | 56 | 1011.8 |
| 20260503190427 | 23 | 311 | 0.0 | 0.0 | 0.00 | 0.00 | 0.00 | 57 | 1011.8 |
| 20260503185905 | 23 | 91 | 0.0 | 0.0 | 0.00 | 0.00 | 0.00 | 56 | 1011.9 |
| 20260503185422 | 23 | 279 | 0.0 | 1.6 | 0.00 | 0.00 | 0.00 | 60 | 1011.9 |
| 20260503184906 | 22 | 303 | 0.0 | 1.6 | 0.00 | 0.00 | 0.00 | 61 | 1012.0 |
| 20260503184415 | 22 | 321 | 0.0 | 0.0 | 0.00 | 0.00 | 0.00 | 59 | 1012.0 |
| 20260503184301 | 22 | 276 | 0.0 | 0.0 | 0.00 | 0.00 | 0.00 | 58 | 1012.1 |
| 20260503183414 | 22 | 299 | 0.0 | 0.0 | 0.00 | 0.00 | 0.00 | 63 | 1012.1 |
| 20260503182905 | 22 | 310 | 0.0 | 0.0 | 0.00 | 0.00 | 0.00 | 61 | 1012.1 |
| 20260503182405 | 22 | 65 | 0.0 | 0.0 | 0.00 | 0.00 | 0.00 | 63 | 1012.2 |
| 20260503181944 | 21 | 313 | 0.0 | 0.0 | 0.00 | 0.00 | 0.00 | 64 | 1012.2 |
| 20260503181406 | 21 | 313 | 0.0 | 0.0 | 0.00 | 0.00 | 0.00 | 62 | 1012.2 |
| 20260503180936 | 21 | 113 | 0.0 | 1.6 | 0.00 | 0.00 | 0.00 | 66 | 1012.2 |
| 20260503180406 | 21 | 295 | 0.0 | 1.6 | 0.00 | 0.00 | 0.00 | 64 | 1012.2 |
| 20260503180230 | 21 | 294 | 0.0 | 1.6 | 0.00 | 0.00 | 0.00 | 62 | 1012.3 |
| 20260503175407 | 21 | 319 | 0.0 | 0.0 | 0.00 | 0.00 | 0.00 | 65 | 1012.2 |
| 20260503174924 | 20 | 302 | 0.0 | 0.0 | 0.00 | 0.00 | 0.00 | 65 | 1012.3 |
| 20260503174405 | 20 | 286 | 0.0 | 0.0 | 0.00 | 0.00 | 0.00 | 65 | 1012.4 |
| 20260503173916 | 20 | 315 | 0.0 | 0.0 | 0.00 | 0.00 | 0.00 | 67 | 1012.3 |
| 20260503173402 | 20 | 321 | 0.0 | 0.0 | 0.00 | 0.00 | 0.00 | 67 | 1012.4 |
| 20260503172911 | 20 | 304 | 0.0 | 0.0 | 0.00 | 0.00 | 0.00 | 70 | 1012.5 |
| 20260503172753 | 20 | 327 | 0.0 | 0.0 | 0.00 | 0.00 | 0.00 | 68 | 1012.5 |
| 20260503171908 | 19 | 272 | 0.0 | 0.0 | 0.00 | 0.00 | 0.00 | 67 | 1012.5 |
| 20260503171444 | 20 | 310 | 0.0 | 0.0 | 0.00 | 0.00 | 0.00 | 67 | 1012.5 |
| 20260503170904 | 20 | 329 | 0.0 | 0.0 | 0.00 | 0.00 | 0.00 | 68 | 1012.6 |
| 20260503170440 | 20 | 329 | 0.0 | 0.0 | 0.00 | 0.00 | 0.00 | 67 | 1012.5 |
| 20260503150917 | 17 | 102 | 0.0 | 0.0 | 0.00 | 0.00 | 0.00 | 70 | 1012.8 |
| 20260503150354 | 17 | 102 | 0.0 | 0.0 | 0.00 | 0.00 | 0.00 | 73 | 1012.7 |
| 20260503150150 | 16 | 102 | 0.0 | 0.0 | 0.00 | 0.00 | 0.00 | 78 | 1012.7 |
| 20260503131407 | 12 | 102 | 0.0 | 0.0 | 0.00 | 0.00 | 0.00 | 88 | 1012.6 |
| 20260503130846 | 12 | 102 | 0.0 | 0.0 | 0.00 | 0.00 | 0.00 | 88 | 1012.6 |
| 20260503130636 | 12 | 102 | 0.0 | 0.0 | 0.00 | 0.00 | 0.00 | 88 | 1012.6 |
| 20260503110405 | 13 | 102 | 0.0 | 0.0 | 0.00 | 0.00 | 0.00 | 83 | 1012.9 |
| 20260503090335 | 15 | 102 | 0.0 | 0.0 | 0.00 | 0.00 | 0.00 | 81 | 1013.1 |
| 20260503081349 | 15 | 120 | 0.0 | 0.0 | 0.00 | 0.00 | 0.00 | 75 | 1013.3 |
| 20260503080832 | 15 | 120 | 0.0 | 0.0 | 0.00 | 0.00 | 0.00 | 74 | 1013.3 |
| 20260503080346 | 15 | 120 | 0.0 | 0.0 | 0.00 | 0.00 | 0.00 | 76 | 1013.2 |
| 20260503072902 | 14 | 120 | 0.0 | 0.0 | 0.00 | 0.00 | 0.00 | 72 | 1013.2 |
| 20260503072717 | 14 | 120 | 0.0 | 0.0 | 0.00 | 0.00 | 0.00 | 71 | 1013.2 |
| 20260503072151 | 14 | 120 | 0.0 | 0.0 | 0.00 | 0.00 | 0.00 | 71 | 1013.1 |
| 20260503071328 | 14 | 120 | 0.0 | 0.0 | 0.00 | 0.00 | 0.00 | 72 | 1013.2 |
| 20260503070847 | 14 | 120 | 0.0 | 0.0 | 0.00 | 0.00 | 0.00 | 71 | 1013.1 |
| 20260503070326 | 14 | 120 | 0.0 | 0.0 | 0.00 | 0.00 | 0.00 | 71 | 1013.2 |
| 20260503054823 | 16 | 120 | 0.0 | 0.0 | 0.00 | 0.00 | 0.00 | 62 | 1012.9 |
| 20260503054335 | 17 | 120 | 0.0 | 0.0 | 0.00 | 0.00 | 0.00 | 61 | 1012.9 |
| 20260503054210 | 17 | 300 | 0.0 | 0.0 | 0.00 | 0.00 | 0.00 | 61 | 1012.9 |
| 20260503053333 | 17 | 300 | 0.0 | 0.0 | 0.00 | 0.00 | 0.00 | 60 | 1012.8 |
| 20260503052823 | 17 | 300 | 0.0 | 0.0 | 0.00 | 0.00 | 0.00 | 59 | 1012.9 |
| 20260503052326 | 17 | 300 | 0.0 | 0.0 | 0.00 | 0.00 | 0.00 | 58 | 1012.8 |
| 20260503052208 | 17 | 300 | 0.0 | 0.0 | 0.00 | 0.00 | 0.00 | 58 | 1012.8 |
| 20260503051323 | 17 | 294 | 0.0 | 0.0 | 0.00 | 0.00 | 0.00 | 58 | 1012.8 |
| 20260503051200 | 18 | 296 | 0.0 | 0.0 | 0.00 | 0.00 | 0.00 | 57 | 1012.8 |
| 20260503050706 | 18 | 296 | 0.0 | 0.0 | 0.00 | 0.00 | 0.00 | 57 | 1012.8 |
| 20260503045847 | 18 | 294 | 0.0 | 0.0 | 0.00 | 0.00 | 0.00 | 57 | 1012.8 |
| 20260503045323 | 18 | 294 | 0.0 | 0.0 | 0.00 | 0.00 | 0.00 | 56 | 1012.7 |
| 20260503044840 | 18 | 294 | 0.0 | 0.0 | 0.00 | 0.00 | 0.00 | 55 | 1012.7 |
| 20260503044323 | 18 | 288 | 0.0 | 0.0 | 0.00 | 0.00 | 0.00 | 56 | 1012.6 |
| 20260503043840 | 18 | 288 | 0.0 | 0.0 | 0.00 | 0.00 | 0.00 | 55 | 1012.6 |
| 20260503043319 | 18 | 288 | 0.0 | 0.0 | 0.00 | 0.00 | 0.00 | 54 | 1012.6 |
| 20260503043127 | 19 | 278 | 0.0 | 0.0 | 0.00 | 0.00 | 0.00 | 53 | 1012.5 |
| 20260503042316 | 19 | 319 | 0.0 | 0.0 | 0.00 | 0.00 | 0.00 | 53 | 1012.6 |
| 20260503041826 | 18 | 266 | 0.0 | 3.2 | 0.00 | 0.00 | 0.00 | 54 | 1012.5 |
| 20260503041701 | 18 | 101 | 0.0 | 3.2 | 0.00 | 0.00 | 0.00 | 55 | 1012.5 |
| 20260503040820 | 18 | 219 | 0.0 | 0.0 | 0.00 | 0.00 | 0.00 | 58 | 1012.4 |
| 20260503040315 | 18 | 220 | 0.0 | 0.0 | 0.00 | 0.00 | 0.00 | 56 | 1012.3 |
| 20260503035818 | 18 | 142 | 0.0 | 0.0 | 0.00 | 0.00 | 0.00 | 57 | 1012.2 |
| 20260503035350 | 18 | 142 | 0.0 | 0.0 | 0.00 | 0.00 | 0.00 | 58 | 1012.1 |
| 20260503035101 | 18 | 142 | 0.0 | 0.0 | 0.00 | 0.00 | 0.00 | 61 | 1012.1 |
| 20260503034346 | 19 | 142 | 0.0 | 0.0 | 0.00 | 0.00 | 0.00 | 62 | 1012.0 |
| 20260503033813 | 19 | 142 | 0.0 | 0.0 | 0.00 | 0.00 | 0.00 | 61 | 1011.9 |
| 20260503033340 | 20 | 142 | 0.0 | 0.0 | 0.00 | 0.00 | 0.00 | 61 | 1011.8 |
| 20260503032812 | 20 | 142 | 0.0 | 0.0 | 0.00 | 0.00 | 0.00 | 60 | 1011.8 |
| 20260503032334 | 20 | 142 | 0.0 | 0.0 | 0.00 | 0.00 | 0.00 | 59 | 1011.8 |
| 20260503032204 | 20 | 121 | 0.0 | 0.0 | 0.00 | 0.00 | 0.00 | 59 | 1011.8 |
| 20260503031617 | 20 | 302 | 0.0 | 1.6 | 0.00 | 0.00 | 0.00 | 59 | 1011.6 |
| 20260503030812 | 20 | 120 | 0.0 | 4.8 | 0.00 | 0.00 | 0.00 | 59 | 1011.5 |
| 20260503030321 | 21 | 300 | 0.0 | 4.8 | 0.00 | 0.00 | 0.00 | 58 | 1011.5 |
| 20260503025827 | 21 | 142 | 0.0 | 4.8 | 0.00 | 0.00 | 0.00 | 57 | 1011.4 |
| 20260503025319 | 21 | 275 | 0.0 | 4.8 | 0.00 | 0.00 | 0.00 | 57 | 1011.3 |
| 20260503024856 | 21 | 298 | 0.0 | 1.6 | 0.00 | 0.00 | 0.00 | 57 | 1011.2 |
| 20260503024319 | 22 | 331 | 0.0 | 1.6 | 0.00 | 0.00 | 0.00 | 56 | 1011.2 |
| 20260503023851 | 22 | 350 | 0.0 | 3.2 | 0.00 | 0.00 | 0.00 | 56 | 1011.2 |
| 20260503023314 | 22 | 309 | 0.0 | 3.2 | 0.00 | 0.00 | 0.00 | 56 | 1011.2 |
| 20260503023151 | 22 | 150 | 0.0 | 1.6 | 0.00 | 0.00 | 0.00 | 55 | 1011.2 |
| 20260503022317 | 22 | 76 | 0.0 | 3.2 | 0.00 | 0.00 | 0.00 | 56 | 1011.2 |
| 20260503021938 | 22 | 334 | 0.0 | 11.3 | 0.00 | 0.00 | 0.00 | 54 | 1011.3 |
| 20260503021902 | 22 | 277 | 0.0 | 6.4 | 0.00 | 0.00 | 0.00 | 54 | 1011.2 |
| 20260503021400 | 22 | 301 | 0.0 | 11.3 | 0.00 | 0.00 | 0.00 | 56 | 1011.2 |
| 20260503020310 | 23 | 298 | 0.0 | 1.6 | 0.00 | 0.00 | 0.00 | 54 | 1011.2 |
| 20260503015828 | 23 | 309 | 0.0 | 1.6 | 0.00 | 0.00 | 0.00 | 54 | 1011.3 |
| 20260503015311 | 23 | 312 | 0.0 | 0.0 | 0.00 | 0.00 | 0.00 | 55 | 1011.3 |
| 20260503014824 | 23 | 309 | 0.0 | 4.8 | 0.00 | 0.00 | 0.00 | 54 | 1011.3 |
| 20260503014307 | 23 | 286 | 0.0 | 4.8 | 0.00 | 0.00 | 0.00 | 52 | 1011.3 |
| 20260503013819 | 23 | 176 | 0.0 | 1.6 | 0.00 | 0.00 | 0.00 | 53 | 1011.4 |
| 20260503013701 | 23 | 312 | 0.0 | 3.2 | 0.00 | 0.00 | 0.00 | 54 | 1011.4 |
| 20260503012812 | 23 | 83 | 0.0 | 3.2 | 0.00 | 0.00 | 0.00 | 53 | 1011.3 |
| 20260503012401 | 23 | 325 | 0.0 | 11.3 | 0.00 | 0.00 | 0.00 | 53 | 1011.5 |
| 20260503011810 | 23 | 51 | 0.0 | 11.3 | 0.00 | 0.00 | 0.00 | 53 | 1011.4 |
| 20260503011346 | 23 | 289 | 0.0 | 3.2 | 0.00 | 0.00 | 0.00 | 53 | 1011.4 |
| 20260503010807 | 23 | 328 | 0.0 | 4.8 | 0.00 | 0.00 | 0.00 | 53 | 1011.4 |
| 20260503010340 | 23 | 301 | 0.0 | 8.0 | 0.00 | 0.00 | 0.00 | 53 | 1011.4 |
| 20260503005805 | 23 | 299 | 1.6 | 11.3 | 0.00 | 0.00 | 0.00 | 53 | 1011.4 |
| 20260503005333 | 23 | 305 | 1.6 | 12.9 | 0.00 | 0.00 | 0.00 | 53 | 1011.5 |
| 20260503004803 | 23 | 281 | 1.6 | 12.9 | 0.00 | 0.00 | 0.00 | 53 | 1011.4 |
| 20260503004328 | 23 | 319 | 0.0 | 8.0 | 0.00 | 0.00 | 0.00 | 54 | 1011.5 |
| 20260503003803 | 23 | 295 | 0.0 | 12.9 | 0.00 | 0.00 | 0.00 | 54 | 1011.5 |
| 20260503003322 | 23 | 302 | 1.6 | 12.9 | 0.00 | 0.00 | 0.00 | 52 | 1011.4 |
| 20260503002805 | 23 | 302 | 0.0 | 8.0 | 0.00 | 0.00 | 0.00 | 54 | 1011.4 |
| 20260503002318 | 23 | 308 | 0.0 | 6.4 | 0.00 | 0.00 | 0.00 | 55 | 1011.4 |
| 20260503002203 | 23 | 283 | 0.0 | 6.4 | 0.00 | 0.00 | 0.00 | 55 | 1011.4 |
| 20260503001310 | 23 | 300 | 0.0 | 8.0 | 0.00 | 0.00 | 0.00 | 55 | 1011.5 |
| 20260503000804 | 23 | 319 | 0.0 | 12.9 | 0.00 | 0.00 | 0.00 | 55 | 1011.5 |
| 20260503000307 | 23 | 347 | 0.0 | 12.9 | 0.00 | 0.00 | 0.00 | 54 | 1011.5 |
| 20260502235842 | 23 | 298 | 0.0 | 12.9 | 0.00 | 0.00 | 0.00 | 55 | 1011.6 |
| 20260502235523 | 23 | 312 | 0.0 | 12.9 | 0.00 | 0.00 | 0.00 | 57 | 1011.7 |
| 20260502235516 | 23 | 261 | 0.0 | 12.9 | 0.00 | 0.00 | 0.00 | 58 | 1011.7 |
| 20260502235336 | 23 | 316 | 1.6 | 12.9 | 0.00 | 0.00 | 0.00 | 56 | 1011.6 |
| 20260502233834 | 23 | 285 | 0.0 | 9.7 | 0.00 | 0.00 | 0.00 | 57 | 1011.9 |
| 20260502233303 | 23 | 295 | 0.0 | 6.4 | 0.00 | 0.00 | 0.00 | 57 | 1012.0 |
| 20260502232840 | 23 | 325 | 0.0 | 6.4 | 0.00 | 0.00 | 0.00 | 58 | 1012.0 |
| 20260502232304 | 23 | 107 | 0.0 | 6.4 | 0.00 | 0.00 | 0.00 | 56 | 1012.1 |
| 20260502231822 | 23 | 313 | 0.0 | 6.4 | 0.00 | 0.00 | 0.00 | 58 | 1012.1 |
| 20260502231302 | 23 | 301 | 0.0 | 14.5 | 0.00 | 0.00 | 0.00 | 57 | 1012.2 |
| 20260502230817 | 22 | 70 | 1.6 | 14.5 | 0.00 | 0.00 | 0.00 | 60 | 1012.2 |
| 20260502230259 | 22 | 292 | 1.6 | 14.5 | 0.00 | 0.00 | 0.00 | 59 | 1012.3 |
| 20260502230018 | 22 | 331 | 1.6 | 12.9 | 0.00 | 0.00 | 0.00 | 59 | 1012.5 |
| 20260502225839 | 22 | 300 | 1.6 | 14.5 | 0.00 | 0.00 | 0.00 | 60 | 1012.4 |
| 20260502225332 | 22 | 286 | 1.6 | 12.9 | 0.00 | 0.00 | 0.00 | 58 | 1012.4 |
| 20260502224339 | 22 | 112 | 1.6 | 12.9 | 0.00 | 0.00 | 0.00 | 59 | 1012.5 |
| 20260502223800 | 22 | 313 | 1.6 | 12.9 | 0.00 | 0.00 | 0.00 | 59 | 1012.6 |
| 20260502222759 | 22 | 288 | 1.6 | 11.3 | 0.00 | 0.00 | 0.00 | 60 | 1012.6 |
| 20260502222326 | 22 | 290 | 1.6 | 6.4 | 0.00 | 0.00 | 0.00 | 59 | 1012.7 |
| 20260502222224 | 23 | 310 | 0.0 | 12.9 | 0.00 | 0.00 | 0.00 | 60 | 1012.8 |
| 20260502222205 | 22 | 308 | 1.6 | 12.9 | 0.00 | 0.00 | 0.00 | 56 | 1012.7 |
| 20260502220757 | 23 | 300 | 0.0 | 9.7 | 0.00 | 0.00 | 0.00 | 56 | 1012.8 |
| 20260502220314 | 23 | 269 | 1.6 | 9.7 | 0.00 | 0.00 | 0.00 | 57 | 1012.9 |
| 20260502215757 | 23 | 306 | 0.0 | 6.4 | 0.00 | 0.00 | 0.00 | 57 | 1012.9 |
| 20260502215312 | 23 | 278 | 0.0 | 6.4 | 0.00 | 0.00 | 0.00 | 57 | 1013.0 |
| 20260502214759 | 23 | 317 | 0.0 | 6.4 | 0.00 | 0.00 | 0.00 | 58 | 1013.0 |
| 20260502214305 | 22 | 292 | 0.0 | 6.4 | 0.00 | 0.00 | 0.00 | 58 | 1013.0 |
| 20260502213759 | 22 | 307 | 0.0 | 4.8 | 0.00 | 0.00 | 0.00 | 59 | 1013.1 |
| 20260502213548 | 22 | 104 | 0.0 | 8.0 | 0.00 | 0.00 | 0.00 | 58 | 1013.1 |
| 20260502212835 | 22 | 281 | 0.0 | 8.0 | 0.00 | 0.00 | 0.00 | 59 | 1013.1 |
| 20260502212258 | 22 | 329 | 0.0 | 8.0 | 0.00 | 0.00 | 0.00 | 58 | 1013.2 |
| 20260502211832 | 22 | 309 | 0.0 | 6.4 | 0.00 | 0.00 | 0.00 | 56 | 1013.2 |
| 20260502211253 | 22 | 326 | 0.0 | 3.2 | 0.00 | 0.00 | 0.00 | 58 | 1013.3 |
| 20260502210827 | 22 | 157 | 0.0 | 11.3 | 0.00 | 0.00 | 0.00 | 60 | 1013.3 |
| 20260502210255 | 22 | 5 | 0.0 | 11.3 | 0.00 | 0.00 | 0.00 | 60 | 1013.3 |
| 20260502205822 | 22 | 144 | 0.0 | 0.0 | 0.00 | 0.00 | 0.00 | 61 | 1013.4 |
| 20260502205646 | 21 | 90 | 0.0 | 3.2 | 0.00 | 0.00 | 0.00 | 62 | 1013.4 |
| 20260502204817 | 21 | 113 | 0.0 | 3.2 | 0.00 | 0.00 | 0.00 | 62 | 1013.4 |
| 20260502204650 | 21 | 300 | 0.0 | 6.4 | 0.00 | 0.00 | 0.00 | 63 | 1013.5 |
| 20260502203811 | 21 | 297 | 0.0 | 6.4 | 0.00 | 0.00 | 0.00 | 60 | 1013.5 |
| 20260502203643 | 21 | 314 | 0.0 | 4.8 | 0.00 | 0.00 | 0.00 | 62 | 1013.6 |
| 20260502202806 | 21 | 306 | 0.0 | 4.8 | 0.00 | 0.00 | 0.00 | 62 | 1013.6 |
| 20260502202249 | 20 | 292 | 0.0 | 3.2 | 0.00 | 0.00 | 0.00 | 63 | 1013.7 |
| 20260502201800 | 20 | 286 | 0.0 | 14.5 | 0.00 | 0.00 | 0.00 | 63 | 1013.6 |
| 20260502201245 | 20 | 306 | 0.0 | 14.5 | 0.00 | 0.00 | 0.00 | 65 | 1013.7 |
| 20260502200755 | 20 | 296 | 0.0 | 4.8 | 0.00 | 0.00 | 0.00 | 65 | 1013.8 |